Terug naar catalogus

CZ-6A DEB

ActiefSSO
NORAD 55195·DEBRIS·🇨🇳 China

Gelanceerd Nov 11, 2022 vanaf Taiyuan Satellite Launch Center

Loading…

Volgende Passages (komende 24 uur)

TLE

VersSource: Space-Track

Epoch: Sep 14, 2026, 03:07 UTC

1 55195U 22151VL  26257.13007851  .00004150  00000-0  82613-3 0  9996
2 55195  98.6196 319.0798 0091204  33.1754 327.5118 14.60014164197610

Volg CZ-6A DEB in realtime met AllMySat

Download on the App Store